EW4885 Weather Reports


Display with metric or nautical units.
time (UTC)temp
F
wind
direction
speed
MPH
gust
MPH
rain 1hr
in
rain 24hr
in
rain mn
in
humidity
%
barometer
mb
20260507051526 48 295 0.0 0.0 0.00 1.05 0.01 97 1013.5
20260507050032 48 138 0.0 0.0 0.00 1.05 0.01 96 1013.4
20260507044523 48 138 0.0 0.0 0.00 1.19 0.01 96 1013.2
20260507043016 48 138 0.0 0.0 0.00 1.19 0.01 96 1013.1
20260507041527 48 138 0.0 0.0 0.00 1.19 0.01 96 1013.1
20260507040014 48 138 0.0 0.0 0.00 1.19 0.01 96 1013.0
20260507034517 48 138 0.0 0.0 0.00 1.23 0.01 96 1013.0
20260507033013 48 138 1.0 3.0 0.00 1.23 0.01 96 1012.9
20260507031521 48 167 0.0 0.0 0.00 1.23 0.01 96 1013.1
20260507030013 48 167 0.0 0.0 0.00 1.23 0.01 96 1013.0
20260507024513 48 167 0.0 0.0 0.00 1.23 0.01 96 1013.0
20260507023009 48 167 0.0 0.0 0.00 1.23 0.01 96 1013.0
20260507021508 48 167 0.0 0.0 0.00 1.23 0.01 96 1012.8
20260507020008 48 167 0.0 0.0 0.00 1.23 0.01 96 1012.7
20260507014515 48 167 0.0 0.0 0.01 1.23 0.01 96 1012.7
20260507013005 48 167 0.0 0.0 0.01 1.23 0.01 96 1012.7
20260507011506 48 167 0.0 0.0 0.01 1.23 0.01 95 1012.6
20260507010003 49 167 0.0 0.0 0.01 1.24 0.01 96 1012.6
20260507004505 49 167 0.0 0.0 0.00 1.23 0.00 96 1012.6
20260507003001 49 167 0.0 2.0 0.00 1.23 0.00 96 1012.6
20260507001602 49 167 1.0 3.0 0.00 1.23 0.00 96 1012.5
20260507000058 49 192 0.0 2.0 0.00 1.23 0.00 96 1012.4
20260506234602 49 214 0.0 0.0 0.00 1.23 0.00 96 1012.4
20260506233059 49 214 0.0 1.0 0.00 1.23 0.00 96 1012.4
20260506231559 49 215 0.0 1.0 0.00 1.23 0.00 96 1012.4
20260506230057 49 214 0.0 2.0 0.00 1.23 0.00 96 1012.3
20260506224551 49 213 1.0 3.0 0.00 1.23 0.00 95 1012.1
20260506223055 49 259 0.0 1.0 0.00 1.23 0.00 95 1012.0
20260506221548 49 259 0.0 1.0 0.00 1.23 0.00 95 1011.9
20260506220047 49 259 0.0 2.0 0.00 1.23 0.00 95 1011.8
20260506214545 49 259 0.0 2.0 0.01 1.28 1.23 95 1011.9
20260506213102 49 298 0.0 0.0 0.01 1.28 1.23 95 1011.8
20260506211602 49 299 0.0 3.0 0.01 1.28 1.23 95 1011.9
20260506210043 49 126 0.0 1.0 0.01 1.28 1.23 94 1011.8
20260506204546 49 126 0.0 3.0 0.00 1.27 1.22 95 1011.7
20260506203041 49 125 2.0 4.0 0.00 1.27 1.22 95 1011.5
20260506201550 49 99 2.0 3.0 0.00 1.27 1.22 94 1011.5
20260506200034 49 61 1.0 3.0 0.00 1.27 1.22 94 1011.4
20260506194533 50 94 1.0 3.0 0.05 1.28 1.22 94 1011.4
20260506193031 50 49 1.0 3.0 0.13 1.28 1.22 94 1011.4
20260506191556 50 118 1.0 5.0 0.17 1.28 1.22 94 1011.2
20260506190055 50 224 2.0 6.0 0.18 1.28 1.22 94 1011.0
20260506184606 50 147 2.0 7.0 0.13 1.27 1.17 93 1010.9
20260506183057 50 238 3.0 7.0 0.06 1.18 1.09 92 1011.0
20260506181543 50 39 3.0 6.0 0.02 1.13 1.05 91 1010.7
20260506180047 51 22 3.0 7.0 0.01 1.12 1.04 90 1010.4
20260506174542 52 15 5.0 8.0 0.01 1.15 1.04 88 1010.2
20260506173048 53 351 9.0 14.0 0.00 1.14 1.03 84 1010.0
20260506171540 56 307 4.0 8.0 0.00 1.14 1.03 79 1009.7
20260506170055 58 348 2.0 5.0 0.00 1.14 1.03 76 1009.5
20260506164538 59 217 0.0 3.0 0.00 1.14 1.03 74 1009.3
20260506163039 59 182 3.0 6.0 0.00 1.14 1.03 72 1009.1
20260506161540 60 216 2.0 4.0 0.00 1.14 1.03 71 1009.2
20260506160040 61 171 3.0 7.0 0.00 1.14 1.03 69 1009.2
20260506154534 60 169 4.0 9.0 0.00 1.14 1.03 70 1009.1
20260506153029 59 153 2.0 7.0 0.00 1.14 1.03 74 1009.1
20260506151529 59 115 4.0 8.0 0.00 1.14 1.03 78 1009.2
20260506150027 59 151 5.0 10.0 0.00 1.14 1.03 76 1009.3
20260506144524 58 191 4.0 9.0 0.00 1.15 1.03 79 1009.3
20260506143030 58 144 6.0 11.0 0.00 1.15 1.03 81 1009.3
20260506141520 57 161 5.0 9.0 0.00 1.15 1.03 84 1009.6
20260506140017 56 160 3.0 9.0 0.00 1.15 1.03 87 1009.7
20260506134513 54 155 4.0 10.0 0.00 1.27 1.03 89 1009.8
20260506133012 54 144 5.0 12.0 0.00 1.27 1.03 89 1009.9
20260506131512 54 130 6.0 12.0 0.00 1.27 1.03 89 1010.0
20260506130014 54 197 5.0 12.0 0.00 1.27 1.03 91 1010.0
20260506124510 54 169 6.0 12.0 0.00 1.27 1.03 90 1009.9
20260506123010 55 146 6.0 10.0 0.00 1.27 1.03 91 1009.8
20260506121510 55 149 3.0 9.0 0.01 1.27 1.03 91 1009.9
20260506120008 55 199 5.0 10.0 0.01 1.27 1.03 92 1010.0
20260506114506 54 196 5.0 10.0 0.01 1.27 1.03 94 1010.0
20260506113007 52 180 5.0 11.0 0.01 1.26 1.02 95 1010.1
20260506111503 51 178 5.0 12.0 0.02 1.26 1.02 95 1010.2
20260506110002 52 159 5.0 13.0 0.05 1.26 1.02 96 1010.2
20260506104601 51 144 4.0 7.0 0.07 1.26 1.02 96 1010.2
20260506103105 50 162 3.0 9.0 0.09 1.25 1.02 96 1010.2
20260506101553 50 184 4.0 10.0 0.13 1.24 1.01 96 1010.1
20260506100051 50 146 3.0 7.0 0.13 1.21 0.98 95 1010.0
20260506094550 50 176 4.0 9.0 0.14 1.19 0.95 95 1009.9
20260506093047 50 167 5.0 8.0 0.14 1.15 0.92 96 1009.8
20260506091547 50 180 4.0 9.0 0.13 1.11 0.87 95 1009.6
20260506090050 50 181 4.0 10.0 0.13 1.08 0.84 95 1009.3
20260506084559 50 163 4.0 7.0 0.13 1.06 0.81 95 1009.2
20260506083043 50 175 3.0 6.0 0.14 1.03 0.78 95 1008.9
20260506081542 50 200 2.0 6.0 0.15 1.00 0.75 95 1008.8
20260506073035 51 219 2.0 7.0 0.18 0.89 0.64 96 1008.3
20260506071535 51 197 3.0 7.0 0.19 0.85 0.60 96 1008.1
20260506061545 51 213 5.0 10.0 0.19 0.67 0.41 95 1007.2